YO8RXT-3 Weather Reports


Display with metric or nautical units.
time (UTC)temp
F
wind
direction
speed
MPH
gust
MPH
rain 1hr
in
rain 24hr
in
rain mn
in
humidity
%
barometer
mb
20260901123503 77 310 8.0 0.0 0.00 0.00 0.00 51 1017.0
20260901120503 79 270 9.0 0.0 0.00 0.00 0.00 48 1017.0
20260901113502 79 270 6.0 0.0 0.00 0.00 0.00 48 1016.0
20260901110502 79 270 7.0 0.0 0.00 0.00 0.00 45 1016.0
20260901103502 79 260 7.0 0.0 0.00 0.00 0.00 42 1016.0
20260901100502 81 220 7.0 0.0 0.00 0.00 0.00 39 1016.0
20260901093502 79 210 5.0 0.0 0.00 0.00 0.00 39 1016.0
20260901090502 79 190 5.0 0.0 0.00 0.00 0.00 39 1016.0
20260901083502 79 180 8.0 0.0 0.00 0.00 0.00 37 1016.0
20260901080502 75 120 9.0 0.0 0.00 0.00 0.00 44 1016.0
20260901073502 75 130 6.0 0.0 0.00 0.00 0.00 41 1016.0
20260901070502 73 120 6.0 0.0 0.00 0.00 0.00 44 1016.0
20260901063502 72 130 7.0 0.0 0.00 0.00 0.00 47 1015.0
20260901060502 70 120 10.0 0.0 0.00 0.00 0.00 50 1015.0
20260901053502 68 110 9.0 0.0 0.00 0.00 0.00 53 1015.0
20260901050502 68 110 10.0 0.0 0.00 0.00 0.00 49 1015.0
20260901043502 66 100 8.0 0.0 0.00 0.00 0.00 52 1015.0
20260901040502 66 100 10.0 0.0 0.00 0.00 0.00 52 1015.0
20260901033502 64 110 10.0 0.0 0.00 0.00 0.00 56 1015.0
20260901030502 64 100 8.0 0.0 0.00 0.00 0.00 56 1015.0
20260901023502 66 100 9.0 0.0 0.00 0.00 0.00 52 1015.0
20260901020503 66 90 8.0 0.0 0.00 0.00 0.00 49 1015.0
20260901013502 66 100 9.0 0.0 0.00 0.00 0.00 49 1015.0
20260901010502 68 90 10.0 0.0 0.00 0.00 0.00 46 1015.0
20260901003503 70 110 9.0 0.0 0.00 0.00 0.00 43 1016.0
20260901000503 70 110 8.0 0.0 0.00 0.00 0.00 43 1016.0
20260831233502 72 130 8.0 0.0 0.00 0.00 0.00 41 1016.0
20260831230502 75 170 8.0 0.0 0.00 0.00 0.00 36 1016.0
20260831223502 75 150 8.0 0.0 0.00 0.00 0.00 39 1016.0
20260831220504 75 170 10.0 0.0 0.00 0.00 0.00 39 1017.0
20260831213502 75 150 8.0 0.0 0.00 0.00 0.00 39 1017.0
20260831210502 75 150 8.0 0.0 0.00 0.00 0.00 41 1017.0
20260831203502 75 150 6.0 0.0 0.00 0.00 0.00 41 1016.0
20260831200502 75 150 9.0 0.0 0.00 0.00 0.00 39 1016.0
20260831193503 79 120 7.0 0.0 0.00 0.00 0.00 34 1016.0
20260831190503 77 110 5.0 0.0 0.00 0.00 0.00 36 1016.0
20260831183503 79 110 6.0 0.0 0.00 0.00 0.00 34 1016.0
20260831180502 79 140 5.0 0.0 0.00 0.00 0.00 34 1016.0
20260831173502 81 150 9.0 0.0 0.00 0.00 0.00 32 1015.0
20260831170503 81 140 8.0 0.0 0.00 0.00 0.00 34 1015.0
20260831163502 82 150 9.0 0.0 0.00 0.00 0.00 32 1015.0
20260831160502 84 150 9.0 0.0 0.00 0.00 0.00 31 1015.0
20260831153502 86 160 9.0 0.0 0.00 0.00 0.00 29 1015.0
20260831150502 88 160 10.0 0.0 0.00 0.00 0.00 27 1015.0
20260831143502 88 170 9.0 0.0 0.00 0.00 0.00 27 1015.0
20260831140501 88 150 10.0 0.0 0.00 0.00 0.00 27 1015.0
20260831133502 90 140 10.0 0.0 0.00 0.00 0.00 27 1016.0
20260831130502 88 160 8.0 0.0 0.00 0.00 0.00 29 1016.0